EN

Hourly Weather Kzyl-Bolgar

Today, 5 August, Thursday

Time Temperature Precipitation Wind Pressure Humidity
00:00 +17°C° 0.1 mm 2 mps 746 mmHg 94%
01:00 +17°C° 0 mm 2 mps 747 mmHg 94%
02:00 +16°C° 0 mm 2 mps 747 mmHg 94%
03:00 +16°C° 0 mm 3 mps 746 mmHg 94%
04:00 +17°C° 0 mm 3 mps 747 mmHg 90%
05:00 +18°C° 0 mm 3 mps 747 mmHg 86%
06:00 +18°C° 0 mm 3 mps 747 mmHg 81%
07:00 +20°C° 0 mm 4 mps 747 mmHg 70%
08:00 +22°C° 0 mm 4 mps 747 mmHg 59%
09:00 +25°C° 0 mm 4 mps 747 mmHg 48%
10:00 +26°C° 0 mm 4 mps 747 mmHg 43%
11:00 +27°C° 0 mm 5 mps 747 mmHg 39%
12:00 +28°C° 0 mm 5 mps 747 mmHg 35%
13:00 +27°C° 0 mm 5 mps 747 mmHg 37%
14:00 +26°C° 0 mm 5 mps 748 mmHg 40%
15:00 +26°C° 0 mm 5 mps 748 mmHg 43%
16:00 +25°C° 0 mm 5 mps 748 mmHg 45%
17:00 +23°C° 0 mm 4 mps 748 mmHg 48%
18:00 +22°C° 0 mm 4 mps 748 mmHg 50%
19:00 +21°C° 0 mm 4 mps 748 mmHg 53%
20:00 +21°C° 0 mm 3 mps 748 mmHg 56%
21:00 +20°C° 0 mm 3 mps 748 mmHg 58%
22:00 +19°C° 0 mm 3 mps 748 mmHg 60%
23:00 +18°C° 0 mm 3 mps 749 mmHg 61%

Tomorrow, 6 August, Friday

Time Temperature Precipitation Wind Pressure Humidity
00:00 +18°C° 0 mm 3 mps 749 mmHg 62%
01:00 +17°C° 0 mm 2 mps 749 mmHg 65%
02:00 +16°C° 0 mm 2 mps 749 mmHg 67%
03:00 +15°C° 0 mm 2 mps 749 mmHg 70%
04:00 +16°C° 0 mm 2 mps 749 mmHg 66%
05:00 +17°C° 0 mm 2 mps 749 mmHg 63%
06:00 +17°C° 0 mm 2 mps 750 mmHg 60%
07:00 +19°C° 0 mm 3 mps 750 mmHg 54%
08:00 +21°C° 0 mm 3 mps 750 mmHg 48%
09:00 +24°C° 0 mm 3 mps 750 mmHg 41%
10:00 +25°C° 0 mm 3 mps 750 mmHg 39%
11:00 +25°C° 0 mm 3 mps 750 mmHg 36%
12:00 +26°C° 0 mm 3 mps 750 mmHg 33%
13:00 +27°C° 0 mm 3 mps 750 mmHg 32%
14:00 +27°C° 0 mm 3 mps 750 mmHg 31%
15:00 +27°C° 0 mm 3 mps 749 mmHg 30%
16:00 +26°C° 0 mm 3 mps 749 mmHg 32%
17:00 +26°C° 0 mm 3 mps 749 mmHg 35%
18:00 +25°C° 0 mm 3 mps 750 mmHg 38%
19:00 +22°C° 0 mm 3 mps 750 mmHg 42%
20:00 +20°C° 0 mm 2 mps 750 mmHg 46%
21:00 +18°C° 0 mm 2 mps 750 mmHg 50%
22:00 +18°C° 0 mm 2 mps 750 mmHg 51%
23:00 +18°C° 0 mm 2 mps 750 mmHg 51%

Day after tomorrow, 7 August, Saturday

Time Temperature Precipitation Wind Pressure Humidity
00:00 +18°C° 0 mm 2 mps 750 mmHg 51%
01:00 +18°C° 0 mm 2 mps 750 mmHg 52%
02:00 +17°C° 0 mm 2 mps 750 mmHg 53%
03:00 +18°C° 0 mm 1 mps 750 mmHg 55%
04:00 +18°C° 0 mm 1 mps 750 mmHg 53%
05:00 +18°C° 0 mm 2 mps 750 mmHg 51%
06:00 +19°C° 0 mm 2 mps 751 mmHg 49%
07:00 +19°C° 0 mm 2 mps 751 mmHg 51%
08:00 +19°C° 0 mm 3 mps 751 mmHg 53%
09:00 +18°C° 0 mm 3 mps 751 mmHg 55%
10:00 +18°C° 0 mm 3 mps 751 mmHg 55%
11:00 +19°C° 0 mm 3 mps 751 mmHg 56%
12:00 +19°C° 0 mm 3 mps 751 mmHg 57%
13:00 +20°C° 0 mm 3 mps 751 mmHg 54%
14:00 +21°C° 0 mm 3 mps 751 mmHg 51%
15:00 +22°C° 0 mm 3 mps 751 mmHg 48%
16:00 +22°C° 0 mm 3 mps 751 mmHg 49%
17:00 +22°C° 0 mm 3 mps 751 mmHg 51%
18:00 +22°C° 0 mm 3 mps 751 mmHg 53%
19:00 +20°C° 0 mm 3 mps 751 mmHg 56%
20:00 +19°C° 0 mm 3 mps 751 mmHg 60%
21:00 +18°C° 0 mm 3 mps 751 mmHg 64%
22:00 +17°C° 0 mm 2 mps 751 mmHg 66%
23:00 +17°C° 0 mm 2 mps 751 mmHg 68%

8 August, Sunday

Time Temperature Precipitation Wind Pressure Humidity
00:00 +16°C° 0 mm 2 mps 751 mmHg 71%
01:00 +16°C° 0 mm 2 mps 751 mmHg 69%
02:00 +16°C° 0 mm 2 mps 751 mmHg 68%
03:00 +16°C° 0 mm 2 mps 752 mmHg 67%
04:00 +17°C° 0 mm 2 mps 752 mmHg 63%
05:00 +18°C° 0 mm 2 mps 752 mmHg 58%
06:00 +19°C° 0 mm 2 mps 752 mmHg 54%
07:00 +21°C° 0 mm 2 mps 752 mmHg 49%
08:00 +24°C° 0 mm 3 mps 752 mmHg 43%
09:00 +26°C° 0 mm 3 mps 752 mmHg 38%
10:00 +28°C° 0 mm 2 mps 752 mmHg 36%
11:00 +29°C° 0 mm 2 mps 752 mmHg 33%
12:00 +31°C° 0 mm 1 mps 752 mmHg 30%
13:00 +31°C° 0 mm 1 mps 751 mmHg 30%
14:00 +31°C° 0 mm 1 mps 751 mmHg 29%
15:00 +32°C° 0 mm 1 mps 751 mmHg 28%
16:00 +31°C° 0 mm 1 mps 751 mmHg 31%
17:00 +30°C° 0 mm 2 mps 751 mmHg 34%
18:00 +29°C° 0 mm 2 mps 751 mmHg 37%
19:00 +27°C° 0 mm 3 mps 751 mmHg 42%
20:00 +25°C° 0 mm 3 mps 751 mmHg 47%
21:00 +22°C° 0 mm 4 mps 751 mmHg 52%
22:00 +21°C° 0 mm 3 mps 751 mmHg 54%
23:00 +20°C° 0 mm 3 mps 751 mmHg 56%

9 August, Monday

Time Temperature Precipitation Wind Pressure Humidity
00:00 +20°C° 0 mm 3 mps 751 mmHg 58%
01:00 +20°C° 0 mm 3 mps 751 mmHg 57%
02:00 +19°C° 0 mm 3 mps 752 mmHg 57%
03:00 +19°C° 0 mm 3 mps 752 mmHg 57%
04:00 +20°C° 0 mm 3 mps 752 mmHg 54%
05:00 +21°C° 0 mm 3 mps 752 mmHg 51%
06:00 +22°C° 0 mm 3 mps 752 mmHg 48%
07:00 +24°C° 0 mm 3 mps 752 mmHg 44%
08:00 +26°C° 0 mm 4 mps 752 mmHg 40%
09:00 +28°C° 0 mm 4 mps 752 mmHg 35%
10:00 +29°C° 0 mm 4 mps 751 mmHg 33%
11:00 +31°C° 0 mm 3 mps 751 mmHg 31%
12:00 +33°C° 0 mm 3 mps 751 mmHg 28%
13:00 +34°C° 0 mm 3 mps 751 mmHg 27%
14:00 +34°C° 0 mm 2 mps 751 mmHg 27%
15:00 +35°C° 0 mm 2 mps 750 mmHg 26%
16:00 +34°C° 0.1 mm 2 mps 750 mmHg 29%
17:00 +32°C° 0.1 mm 2 mps 750 mmHg 32%
18:00 +31°C° 0.1 mm 1 mps 750 mmHg 35%
19:00 +29°C° 0.1 mm 2 mps 750 mmHg 41%
20:00 +27°C° 0.1 mm 2 mps 750 mmHg 47%
21:00 +25°C° 0.1 mm 2 mps 750 mmHg 53%
22:00 +25°C° 0 mm 2 mps 750 mmHg 51%
23:00 +25°C° 0 mm 3 mps 750 mmHg 50%

10 August, Tuesday

Time Temperature Precipitation Wind Pressure Humidity
00:00 +25°C° 0 mm 3 mps 749 mmHg 48%
01:00 +25°C° 0 mm 2 mps 749 mmHg 48%
02:00 +24°C° 0 mm 2 mps 749 mmHg 48%
03:00 +23°C° 0 mm 2 mps 749 mmHg 48%
04:00 +23°C° 0 mm 2 mps 749 mmHg 48%
05:00 +24°C° 0 mm 1 mps 749 mmHg 48%
06:00 +24°C° 0 mm 1 mps 749 mmHg 48%
07:00 +25°C° 0 mm 1 mps 749 mmHg 44%
08:00 +27°C° 0 mm 1 mps 749 mmHg 41%
09:00 +29°C° 0 mm 1 mps 749 mmHg 37%
10:00 +30°C° 0 mm 2 mps 749 mmHg 36%
11:00 +31°C° 0 mm 2 mps 749 mmHg 35%
12:00 +33°C° 0 mm 3 mps 749 mmHg 34%
13:00 +33°C° 0 mm 3 mps 748 mmHg 35%
14:00 +33°C° 0 mm 4 mps 748 mmHg 36%
15:00 +33°C° 0 mm 4 mps 748 mmHg 37%
16:00 +32°C° 0.1 mm 4 mps 748 mmHg 41%
17:00 +30°C° 0.1 mm 4 mps 748 mmHg 45%
18:00 +29°C° 0.1 mm 4 mps 748 mmHg 49%
19:00 +27°C° 0.6 mm 3 mps 748 mmHg 57%
20:00 +24°C° 0.6 mm 3 mps 748 mmHg 65%
21:00 +21°C° 0.6 mm 2 mps 748 mmHg 74%
22:00 +21°C° 0.1 mm 2 mps 748 mmHg 76%
23:00 +20°C° 0.1 mm 3 mps 748 mmHg 78%
Show more